Regional Weather Roundup
Issued by NWS

Home | Current Version | Previous Version | Text Only | Print | Product List | Glossary Off
Versions: 1 2 3 4 5 6 7 8 9 10 11 12 13 14 15 16 17 18 19 20 21 22 23 24 25 26 27 28 29 30 31 32 33 34 35 36 37 38 39 40 41 42 43 44 45 46 47 48 49 50

646
ASUS43 KDMX 240906
RWRIA

WEATHER ROUNDUP FOR IOWA
NATIONAL WEATHER SERVICE DES MOINES IA
400 AM CDT FRI MAR 24 2017

NOTE: "FAIR" INDICATES FEW OR NO CLOUDS BELOW 12,000 FEET WITH NO
SIGNIFICANT WEATHER AND/OR OBSTRUCTIONS TO VISIBILITY.

* - THESE STATIONS ARE NOT NWS STATIONS...THUS NOT UNDER NWS
QUALITY CONTROL.  THEY ALSO DO NOT REPORT WEATHER SUCH
AS PRECIPITATION OR FOG.

IAZ001>003-012>014-020>022-031>034-043>046-241000-
   NORTHWEST IOWA

CITY           SKY/WX    TMP DP  RH WIND       PRES   REMARKS
CARROLL *      CLOUDY    52  50  93 N8        29.75S
CHEROKEE *     CLOUDY    42  42 100 CALM      29.74F
LE MARS *      CLOUDY    46  46 100 W7        29.74R
ORANGE CITY *  DRIZZLE   45  45 100 NW6G17    29.75F
SHELDON *      RAIN      41  41 100 N8G17     29.74F
SIOUX CITY     LGT RAIN  48  47  96 SE9       29.74S FOG
SPENCER        LGT RAIN  41  40  96 SE8       29.74F
STORM LAKE *   LGT RAIN  43  41  93 NW8       29.76S
$$

IAZ055>058-069>071-079>083-090>094-241000-
   SOUTHWEST IOWA

CITY           SKY/WX    TMP DP  RH WIND       PRES   REMARKS
ATLANTIC *     CLOUDY    64  50  59 NW7       29.74R
AUDUBON *      CLOUDY    61  52  72 SW6       29.75F
CLARINDA *     CLOUDY    66  50  55 S14       29.75F
COUNCIL BLFS * CLOUDY    59  57  94 N10       29.75R
CRESTON *      PTCLDY    63  48  59 S15       29.76F
HARLAN  *      CLOUDY    57  57 100 N7        29.78S
LAMONI         PTCLDY    61  46  57 S10       29.78F
RED OAK *      CLOUDY    66  50  55 S14       29.73S
SHENANDOAH *   CLOUDY    66  50  55 S10       29.73S
$$

IAZ047>049-059>061-072>074-084-241000-
   CENTRAL IOWA

CITY           SKY/WX    TMP DP  RH WIND       PRES   REMARKS
AMES           CLOUDY    49  43  80 SE7       29.75S
ANKENY *       MOCLDY    52  43  71 S3        29.76F
BOONE *        CLOUDY    48  43  81 S5        29.74S
CHARITON *     CLOUDY    61  46  59 S14G20    29.77F
DES MOINES     MOCLDY    55  44  66 SE7       29.75S
GRINNELL*      CLOUDY    49  43  78 S9        29.80R
MARSHALLTOWN   CLOUDY    47  41  80 SE12      29.75F
NEWTON *       PTCLDY    46  43  87 SE9       29.77R
PELLA *        PTCLDY    55  45  70 SE6       29.79R
PERRY *        MOCLDY    48  39  73 E3        29.74S
$$

IAZ004>006-015-016-023>025-035-036-241000-
   NORTH CENTRAL IOWA

CITY           SKY/WX    TMP DP  RH WIND       PRES   REMARKS
ALGONA *       LGT RAIN  41  41 100 NE7       29.75F
CLARION *      MOCLDY    46  45  93 NW7G28    29.77R
ESTHERVILLE    LGT RAIN  38  38 100 SE10      29.73F FOG     WCI  31
FORT DODGE *   MOCLDY    45  39  81 NW6       29.78R
MASON CITY     CLOUDY    39  37  92 NE7       29.79F WCI  34
FOREST CITY *  RAIN      39  37  93 SE10      29.78S WCI  32
WEBSTER CITY * MOCLDY    50  43  76 S10       29.73S
IOWA FALLS *   CLOUDY    49  43  79 CALM      29.77S
$$

IAZ007>011-017>019-026>030-037>042-050>054-066-241000-
   NORTHEAST IOWA

CITY           SKY/WX    TMP DP  RH WIND       PRES   REMARKS
CEDAR RAPIDS   CLOUDY    45  42  89 S12       29.79F
CHARLES CITY * CLOUDY    41  41 100 N7        29.81R
CLINTON *      PTCLDY    46  42  86 S12       29.86F
DECORAH *      CLOUDY    41  39  93 NW13      29.83R
DUBUQUE        CLOUDY    41  38  89 S12       29.81F
MONTICELLO *   CLOUDY    45  41  87 SE13      29.81F
OELWEIN *      CLOUDY    41  41 100 SE13      29.77F
WATERLOO       MOCLDY    43  39  86 S6        29.77F
$$

IAZ064-065-067-068-078-241000-
   EAST CENTRAL IOWA

CITY           SKY/WX    TMP DP  RH WIND       PRES   REMARKS
DAVENPORT      CLOUDY    52  44  74 S20       29.85F
IOWA CITY      CLOUDY    43  39  86 CALM      29.84F
MUSCATINE *    CLOUDY    45  41  87 S5        29.85F
QUAD CITIES    CLOUDY    54  44  69 S12       29.85F
$$

IAZ062-063-075>077-085>089-095>099-241000-
   SOUTHEAST IOWA

CITY           SKY/WX    TMP DP  RH WIND       PRES   REMARKS
BURLINGTON     PTCLDY    54  46  74 S12       29.86S
FAIRFIELD *    PTCLDY    57  46  67 S10       29.82F
FORT MADISON * PTCLDY    54  46  76 S9        29.87F
KEOKUK *       PTCLDY    55  48  76 S7        29.86F
OSKALOOSA *      N/A     51  45  79 S12       29.80F
CENTERVILLE *    N/A     59  48  67 S13       29.82F
OTTUMWA        PTCLDY    56  47  71 S15       29.79F
WASHINGTON *   CLOUDY    52  46  82 S14       29.83F
$$

ABBREVIATIONS USED IN REMARKS
   TC - TEMPERATURES IN CELSIUS
  WCI - WIND CHILL INDEX
   HX - HEAT INDEX
  VSB - VISIBILITY
$$





USA.gov is the U.S. government's official web portal to all federal, state and local government web resources and services.